Regional Weather Roundup
Issued by NWS

Home | Current Version | Previous Version | Graphics & Text | Print | Product List | Glossary On
Versions: 1 2 3 4 5 6 7 8 9 10 11 12 13 14 15 16 17 18 19 20 21 22 23 24 25 26 27 28 29 30 31 32 33 34 35 36 37 38 39 40 41 42 43 44 45 46 47 48 49 50
000
ASUS43 KLOT 030900
RWRIL

ILLINOIS REGIONAL WEATHER ROUNDUP
NATIONAL WEATHER SERVICE CHICAGO/ROMEOVILLE IL
400 AM CDT WED JUN 03 2015

NOTE: "FAIR" INDICATES FEW OR NO CLOUDS BELOW 12,000 FEET WITH NO
SIGNIFICANT WEATHER AND/OR OBSTRUCTIONS TO VISIBILITY.

* THESE STATIONS ARE NOT UNDER NWS QUALITY CONTROL. THEY ALSO MAY NOT
  REPORT WEATHER SUCH AS PRECIPITATION OR FOG.

ILZ001-002-007-009-015-016-024-031000-
NORTHWEST ILLINOIS

CITY           SKY/WX    TMP DP  RH WIND       PRES   REMARKS
MOLINE         CLEAR     54  49  83 E6        30.01F
STERLING*      MOCLDY    57  52  82 SE7       30.04F
$$

ILZ003-004-008-010-011-017-018-031000-
NORTH CENTRAL ILLINOIS

CITY           SKY/WX    TMP DP  RH WIND       PRES   REMARKS
ROCKFORD       MOCLDY    55  48  77 S5        30.07S
FREEPORT*      PTCLDY    52  49  89 SE6       30.06F
$$

ILZ005-006-012>014-019>023-031000-
NORTHEAST ILLINOIS

CITY           SKY/WX    TMP DP  RH WIND       PRES   REMARKS
CHICAGO-OHARE  MOCLDY    52  44  74 SE3       30.07S
CHICAGO-MIDWAY MOCLDY    56  50  80 CALM      30.08S
AURORA         PTCLDY    50  45  83 E3        30.07S
WAUKEGAN       NOT AVBL
DUPAGE AIRPORT PTCLDY    50  44  80 E3        30.06F
WHEELING       PTCLDY    50  45  83 CALM      30.09F
NORTHERLY ISL    N/A     52  49  89 CALM        N/A
$$

LMZ740>746-031000-
SOUTHERN LAKE MICHIGAN

STATION/POSITION SKY/WX   TEMP    WIND        PRES    VSBY  WAVE
                          AIR SEA DIR/SP/G                  HT/PER
                          (F)     (DEG/KT/KT) (MB)    (MI)  (FT/S)
SOUTHERN BUOY              46 38  150/ 10/ 10 1019.2F
HARRISON CRIB              56     150/  8/ 10   N/A
BURNHAM HARBOR             53      CALM  /  3   N/A
CALUMET HARBOR             56     180/  2/  3   N/A
BURNS HARBOR                      140/  8/ 12 1019.0F
MICHIGAN CITY              55     110/  6/  7   N/A
MICHIGAN CITY 6N           56 56  150/  4/  6   N/A           1
ST. JOSEPH                 56 55  150/  6/  8   N/A           1
$$

ILZ025>027-034>036-040-047-049-050-058-095>099-031000-
WEST-CENTRAL ILLINOIS

CITY           SKY/WX    TMP DP  RH WIND       PRES   REMARKS
QUINCY         CLEAR     57  55  93 SW3       30.02S FOG
MACOMB*        CLEAR     55  54  97 S6        30.05R
$$

ILZ028>032-037-038-041>044-048-051>054-059>061-031000-
CENTRAL ILLINOIS

CITY           SKY/WX    TMP DP  RH WIND       PRES   REMARKS
DECATUR        PTCLDY    56  54  93 SE3       30.05S FOG
PEORIA         PTCLDY    60  54  80 SE6       30.04S
LINCOLN*       PTCLDY    57  55  90 CALM      30.03S
SPRINGFIELD    PTCLDY    58  55  90 CALM      30.04S FOG
TAYLORVILLE    NOT AVBL
$$

ILZ033-039-045-046-055>057-062-063-031000-
EAST-CENTRAL ILLINOIS

CITY           SKY/WX    TMP DP  RH WIND       PRES   REMARKS
CHAMPAIGN      CLEAR     54  52  93 SE7       30.06S
MATTOON        CLOUDY    58  55  90 S5        30.05S
$$

ILZ079-100>102-031000-
SOUTHWEST ILLINOIS

CITY           SKY/WX    TMP DP  RH WIND       PRES   REMARKS
BELLEVILLE     CLEAR     55  55 100 CALM      30.03S
CAHOKIA*       PTCLDY    56  54  93 CALM      30.03S FOG
SPARTA*        MOCLDY    58  55  92 CALM      30.04S
$$

ILZ064>066-069>071-074>076-080>082-084>086-088>090-092>094-031000-
SOUTH-CENTRAL ILLINOIS

CITY           SKY/WX    TMP DP  RH WIND       PRES   REMARKS
CARBONDALE     FOG       53  52  96 N3        30.04S VSB 1/2
MT. VERNON     CLOUDY    54  48  82 CALM      30.05S
$$

ILZ067-068-072-073-078-083-087-091-031000-
SOUTHEAST ILLINOIS

CITY           SKY/WX    TMP DP  RH WIND       PRES   REMARKS
LAWRENCEVILLE  CLEAR     54  52  93 NE6       30.06S FOG
HARRISBURG*    CLOUDY    57  57 100 CALM      30.05S FOG
ROBINSON*      MOCLDY    55  53  92 CALM      30.07S
$$

ABBREVIATIONS USED IN REMARKS
   TC - TEMPERATURE IN CELSIUS
  WCI - WIND CHILL INDEX
   HX - HEAT INDEX
  VSB - VISIBILITY
$$



USA.gov is the U.S. government's official web portal to all federal, state and local government web resources and services.